Location: Recife
(8.0585°S, 34.8848°W)
Time: 06:26:03
(UTC-03:00)

Vanguard 1 - Pass Details

Date: 22 April 2026
Orbit: 654 x 3817 km, 34.2° (Epoch: 13 May)

Event Time Altitude Azimuth Distance (km) Brightness Sun altitude
Rises 18:38:41 0° 256° (WSW) 5,090 14.9 -21.3°
Reaches altitude 10° 18:41:46 10° 264° (W) 4,455 14.4 -22.1°
Maximum altitude 18:53:59 41° 329° (NNW) 3,727 13.2 -25.0°
Drops below altitude 10° 19:13:19 10° 32° (NNE) 6,796 14.1 -29.8°
Sets 19:19:40 0° 39° (NE) 7,936 14.4 -31.3°
